Location: Erraguntapalli
(18.7700°N, 79.7783°E)
Time: 23:58:56
(UTC+00:00)

ISS - Pass Details

Date: 15 November 2019
Orbit: 411 x 421 km, 51.6° (Epoch: 16 December)

Event Time Altitude Azimuth Distance (km) Brightness Sun altitude
Exits shadow 00:07:18 - 326° (NW) 1,621 -1.2 -9.9°
Reaches altitude 10° 00:07:36 10° 326° (NNW) 1,498 -1.4 -9.8°
Maximum altitude 00:10:57 71° 51° (NE) 445 -3.5 -9.1°
Drops below altitude 10° 00:14:17 10° 136° (SE) 1,488 0.1 -8.3°
Sets 00:16:22 0° 138° (SE) 2,348 1.2 -7.9°
